| time (UTC) | temp F | wind direction | speed knots | gust knots | rain 1hr in | rain 24hr in | rain mn in | humidity % | barometer mb |
| 20260505034236 | 61 | 0.0 | 0.0 | 0.00 | 0.00 | 0.00 | 87 | ||
| 20260505033400 | 61 | 0.0 | 0.0 | 0.00 | 0.00 | 0.00 | 86 | ||
| 20260505032236 | 61 | 0.0 | 0.0 | 0.00 | 0.00 | 0.00 | 86 | ||
| 20260505031300 | 61 | 0.0 | 0.0 | 0.00 | 0.00 | 0.00 | 86 | ||
| 20260505030236 | 62 | 0.0 | 0.0 | 0.00 | 0.00 | 0.00 | 86 | ||
| 20260505030120 | 62 | 0.0 | 0.0 | 0.00 | 0.00 | 0.00 | 86 | ||
| 20260505025036 | 62 | 0.0 | 0.0 | 0.00 | 0.00 | 0.00 | 86 | ||
| 20260505024100 | 62 | 0.0 | 0.0 | 0.00 | 0.00 | 0.00 | 86 | ||
| 20260505023036 | 62 | 0.0 | 0.0 | 0.00 | 0.00 | 0.00 | 86 | ||
| 20260505022100 | 62 | 0.0 | 0.0 | 0.00 | 0.00 | 0.00 | 85 | ||
| 20260505021036 | 63 | 0.0 | 0.0 | 0.00 | 0.00 | 0.00 | 85 | ||
| 20260505020236 | 63 | 0.0 | 0.9 | 0.00 | 0.00 | 0.00 | 85 | ||
| 20260505015036 | 63 | 0.0 | 0.9 | 0.00 | 0.00 | 0.00 | 84 | ||
| 20260505014100 | 63 | 0.0 | 0.0 | 0.00 | 0.00 | 0.00 | 83 | ||
| 20260505013036 | 63 | 0.0 | 0.0 | 0.00 | 0.00 | 0.00 | 83 | ||
| 20260505012100 | 63 | 0.0 | 0.0 | 0.00 | 0.00 | 0.00 | 82 | ||
| 20260505011036 | 63 | 0.0 | 0.0 | 0.00 | 0.00 | 0.00 | 82 | ||
| 20260505010120 | 63 | 0.0 | 0.9 | 0.00 | 0.00 | 0.00 | 82 | ||
| 20260505005036 | 64 | 0.0 | 0.0 | 0.00 | 0.00 | 0.00 | 80 | ||
| 20260505004100 | 63 | 0.0 | 0.0 | 0.00 | 0.00 | 0.00 | 83 | ||
| 20260505003036 | 64 | 0.0 | 0.0 | 0.00 | 0.00 | 0.00 | 80 | ||
| 20260505002100 | 64 | 0.0 | 0.0 | 0.00 | 0.00 | 0.00 | 80 | ||
| 20260505001036 | 64 | 0.0 | 0.0 | 0.00 | 0.00 | 0.00 | 80 | ||
| 20260505000325 | 64 | 0.0 | 0.0 | 0.00 | 0.00 | 0.00 | 80 | ||
| 20260504235037 | 64 | 0.0 | 0.0 | 0.00 | 0.00 | 0.00 | 79 | ||
| 20260504234100 | 64 | 0.0 | 0.0 | 0.00 | 0.00 | 0.00 | 79 | ||
| 20260504233036 | 64 | 0.0 | 0.9 | 0.00 | 0.00 | 0.00 | 79 | ||
| 20260504232100 | 64 | 0.0 | 0.0 | 0.00 | 0.00 | 0.00 | 78 | ||
| 20260504231036 | 65 | 0.0 | 0.0 | 0.00 | 0.00 | 0.00 | 77 | ||
| 20260504230100 | 65 | 0.0 | 0.0 | 0.00 | 0.00 | 0.00 | 77 | ||
| 20260504225036 | 65 | 0.0 | 0.0 | 0.00 | 0.00 | 0.00 | 76 | ||
| 20260504224101 | 65 | 0.0 | 0.0 | 0.00 | 0.00 | 0.00 | 76 | ||
| 20260504223056 | 65 | 0.0 | 0.9 | 0.00 | 0.00 | 0.00 | 75 | ||
| 20260504222101 | 65 | 0.0 | 0.0 | 0.00 | 0.00 | 0.00 | 76 | ||
| 20260504221036 | 65 | 0.0 | 0.9 | 0.00 | 0.00 | 0.00 | 76 | ||
| 20260504220325 | 65 | 0.0 | 0.0 | 0.00 | 0.00 | 0.00 | 77 | ||
| 20260504215037 | 65 | 0.0 | 0.9 | 0.00 | 0.00 | 0.00 | 78 | ||
| 20260504214100 | 65 | 0.0 | 0.9 | 0.00 | 0.00 | 0.00 | 79 | ||
| 20260504213036 | 65 | 0.0 | 0.9 | 0.00 | 0.00 | 0.00 | 79 | ||
| 20260504212100 | 65 | 0.0 | 0.0 | 0.00 | 0.00 | 0.00 | 80 | ||
| 20260504211036 | 65 | 0.0 | 0.9 | 0.00 | 0.00 | 0.00 | 80 | ||
| 20260504210120 | 65 | 0.0 | 0.9 | 0.00 | 0.00 | 0.00 | 81 | ||
| 20260504205036 | 66 | 0.0 | 0.9 | 0.00 | 0.00 | 0.00 | 81 | ||
| 20260504204100 | 66 | 0.0 | 0.9 | 0.00 | 0.00 | 0.00 | 80 | ||
| 20260504203036 | 67 | 0.0 | 0.9 | 0.00 | 0.00 | 0.00 | 80 | ||
| 20260504202100 | 67 | 0.0 | 0.0 | 0.00 | 0.00 | 0.00 | 79 | ||
| 20260504201036 | 67 | 0.0 | 0.9 | 0.00 | 0.00 | 0.00 | 78 | ||
| 20260504200148 | 67 | 0.0 | 0.9 | 0.00 | 0.00 | 0.00 | 78 | ||
| 20260504195036 | 67 | 0.0 | 0.9 | 0.00 | 0.00 | 0.00 | 79 | ||
| 20260504194102 | 67 | 0.0 | 0.9 | 0.00 | 0.00 | 0.00 | 79 | ||
| 20260504193057 | 67 | 0.0 | 0.9 | 0.00 | 0.00 | 0.00 | 78 | ||
| 20260504192100 | 67 | 0.0 | 0.9 | 0.00 | 0.00 | 0.00 | 77 | ||
| 20260504191037 | 68 | 0.0 | 0.9 | 0.00 | 0.00 | 0.00 | 75 | ||
| 20260504190549 | 68 | 180 | 0.0 | 1.7 | 0.00 | 0.00 | 0.00 | 74 | |
| 20260504185038 | 69 | 0.0 | 0.9 | 0.00 | 0.00 | 0.00 | 72 | ||
| 20260504184100 | 70 | 0.0 | 0.9 | 0.00 | 0.00 | 0.00 | 71 | ||
| 20260504183321 | 71 | 0.0 | 0.0 | 0.00 | 0.00 | 0.00 | 71 | ||
| 20260504182208 | 71 | 0.0 | 0.9 | 0.00 | 0.00 | 0.00 | 70 | ||
| 20260504181037 | 72 | 0.0 | 1.7 | 0.00 | 0.00 | 0.00 | 67 | ||
| 20260504180237 | 75 | 0.0 | 0.9 | 0.00 | 0.00 | 0.00 | 60 | ||
| 20260504175037 | 77 | 0.0 | 0.9 | 0.00 | 0.00 | 0.00 | 57 | ||
| 20260504174101 | 77 | 0.0 | 0.9 | 0.00 | 0.00 | 0.00 | 59 | ||
| 20260504173036 | 75 | 0.0 | 0.9 | 0.00 | 0.00 | 0.00 | 60 | ||
| 20260504172101 | 75 | 0.0 | 0.9 | 0.00 | 0.00 | 0.00 | 60 | ||
| 20260504171037 | 75 | 0.0 | 0.9 | 0.00 | 0.00 | 0.00 | 59 | ||
| 20260504170549 | 75 | 0.0 | 0.9 | 0.00 | 0.00 | 0.00 | 57 | ||
| 20260504151057 | 82 | 0 | 0.0 | 1.7 | 0.00 | 0.00 | 0.00 | 50 | |
| 20260504150549 | 82 | 0.0 | 0.9 | 0.00 | 0.00 | 0.00 | 50 | ||
| 20260504141037 | 83 | 270 | 0.0 | 1.7 | 0.00 | 0.00 | 0.00 | 46 | |
| 20260504140609 | 82 | 0.0 | 0.9 | 0.00 | 0.00 | 0.00 | 48 | ||
| 20260504130549 | 82 | 0.0 | 0.9 | 0.00 | 0.00 | 0.00 | 50 | ||
| 20260504110637 | 69 | 0.0 | 0.0 | 0.00 | 0.00 | 0.00 | 71 | ||
| 20260504081702 | 68 | 0.0 | 0.0 | 0.00 | 0.00 | 0.00 | 72 | ||
| 20260504080638 | 68 | 0.0 | 0.9 | 0.00 | 0.00 | 0.00 | 72 | ||
| 20260504050639 | 64 | 0.0 | 0.0 | 0.00 | 0.00 | 0.00 | 80 | ||
| 20260504045702 | 64 | 0.0 | 0.0 | 0.00 | 0.00 | 0.00 | 80 | ||
| 20260504044638 | 64 | 0.0 | 0.0 | 0.00 | 0.00 | 0.00 | 80 | ||
| 20260504043702 | 64 | 0.0 | 0.0 | 0.00 | 0.00 | 0.00 | 79 | ||
| 20260504042638 | 64 | 0.0 | 0.0 | 0.00 | 0.00 | 0.00 | 79 | ||
| 20260504041702 | 64 | 0.0 | 0.0 | 0.00 | 0.00 | 0.00 | 78 | ||
| 20260504040638 | 64 | 0.0 | 0.0 | 0.00 | 0.00 | 0.00 | 78 | ||
| 20260504035302 | 64 | 0.0 | 0.0 | 0.00 | 0.00 | 0.00 | 78 |